[[{"header":{"parameterUnit":"m.s-1","parameterCategory":2,"la1":30.2991,"la2":30.254,"lo1":-89.0895,"lo2":-89.0444,"dy":0.0017,"dx":0.0017,"nx":28,"ny":28,"refTime":"2024-07-10T21:00:00:Z","depth":"0","parameterNumber":2,"parameterNumberName":"U-component_of_CURRENTS"},"data":[0,0,0,0,0,0,0,0,0,0,0,0,0,0,0,0,0,0,0,0,0,0,0,0,0,0,0,0,0,0,0,0,0,0,0,0,0,0,0,0,0,0,0,0,0,0,0,0,0,0,0,0,0,0,0,0,0,0,-0.2871,-0.287,0,-0.2739,-0.2738,-0.2736,-0.2673,-0.2674,-0.2674,-0.2674,-0.2526,-0.2522,-0.2517,0,0,0,0,0,0,0,0,0,0,0,0,0,-0.303,-0.3028,-0.2871,-0.287,-0.2868,-0.274,-0.2737,-0.2735,-0.2673,-0.2674,-0.2674,-0.2675,-0.2527,-0.2522,-0.2517,0,0,0,0,0,0,0,0,0,0,0,0,0,-0.2933,-0.3027,-0.2871,-0.2825,-0.2819,-0.274,-0.2737,-0.2735,-0.2673,-0.2674,-0.2674,-0.2675,-0.2529,-0.2523,-0.2516,-0.2464,0,0,-0.2497,-0.2494,0,0,0,0,0,0,0,0,-0.2939,-0.2927,-0.2833,-0.2828,-0.2822,-0.2727,-0.2739,-0.2645,-0.2673,-0.2725,-0.2674,-0.2675,-0.2593,-0.2582,-0.2551,-0.2457,-0.2451,-0.2496,-0.2492,-0.2489,-0.2487,0,0,0,0,0,0,0,-0.2945,-0.2932,-0.2815,-0.2831,-0.2825,-0.2797,-0.2784,-0.2721,-0.2654,-0.272,-0.2716,-0.2707,-0.259,-0.2557,-0.2547,-0.2449,-0.2496,-0.249,-0.2486,-0.2484,-0.2359,-0.2359,0,0,0,0,0,0,-0.297,-0.2938,-0.2819,-0.2812,-0.2887,-0.2795,-0.2779,-0.2753,-0.2655,-0.2642,-0.2707,-0.2705,-0.2568,-0.2554,-0.2541,-0.2513,-0.2489,-0.2483,-0.248,-0.2358,-0.2359,-0.2359,0,0,0,0,0,0,-0.2973,-0.296,-0.2825,-0.2876,-0.2858,-0.2792,-0.2763,-0.2751,-0.2732,-0.2646,-0.2632,-0.2703,-0.2568,-0.255,-0.2503,-0.2505,-0.248,-0.2474,-0.2357,-0.2358,-0.2359,-0.243,0,0,0,0,0,0,-0.2978,-0.2961,-0.296,-0.2877,-0.2856,-0.2786,-0.2762,-0.2748,-0.2726,-0.2723,-0.2638,-0.2623,-0.2567,-0.2513,-0.2497,-0.2496,-0.2469,-0.2357,-0.2358,-0.2359,-0.2427,-0.2434,-0.2439,0,0,0,0,0,-0.2984,-0.2972,-0.296,-0.2947,-0.2852,-0.2787,-0.2773,-0.2726,-0.2726,-0.2713,-0.2668,-0.2627,-0.2509,-0.2508,-0.2488,-0.2486,-0.2356,-0.2357,-0.2359,-0.2425,-0.2432,-0.2439,0,0,0,0,0,0,-0.3051,-0.2963,-0.2948,-0.2914,-0.2864,-0.2778,-0.2762,-0.2739,-0.2691,-0.269,-0.2623,-0.2605,-0.2568,-0.252,-0.2521,-0.2456,-0.2429,-0.2427,-0.2486,-0.2493,-0.2498,-0.2503,-0.2464,0,0,0,0,0,-0.3065,-0.3026,-0.2953,-0.293,-0.2905,-0.2841,-0.2815,-0.278,-0.2725,-0.2704,-0.2646,-0.2593,-0.2553,-0.2521,-0.2468,-0.2423,-0.2414,-0.2413,-0.2419,-0.2424,-0.2417,-0.242,-0.2426,-0.2364,-0.2363,-0.2363,0,0,-0.309,-0.3036,-0.3018,-0.2942,-0.2896,-0.2848,-0.2825,-0.2782,-0.2751,-0.2695,-0.264,-0.2608,-0.2549,-0.2504,-0.2483,-0.2465,-0.2444,-0.2426,-0.2431,-0.242,-0.2422,-0.2428,-0.2434,-0.2364,-0.2364,-0.2364,0,0,-0.3099,-0.3066,-0.303,-0.2982,-0.2915,-0.2869,-0.2865,-0.2784,-0.276,-0.2707,-0.2675,-0.2654,-0.2561,-0.2531,-0.2505,-0.2512,-0.2481,-0.2495,-0.2515,-0.2519,-0.2525,-0.2529,-0.2558,-0.2564,-0.2491,-0.2491,-0.2491,0,-0.3139,-0.307,-0.3016,-0.2965,-0.2929,-0.2883,-0.2842,-0.2805,-0.2724,-0.2708,-0.2699,-0.2615,-0.2576,-0.2543,-0.255,-0.2524,-0.2527,-0.2494,-0.2528,-0.2532,-0.2535,-0.2563,-0.2569,-0.2495,-0.2494,-0.2494,-0.2494,0,-0.3105,-0.3057,-0.3033,-0.2948,-0.2909,-0.2865,-0.2806,-0.2778,-0.2754,-0.2717,-0.2687,-0.2644,-0.2596,-0.2593,-0.2568,-0.2571,-0.2569,-0.2544,-0.2514,-0.2546,-0.2573,-0.2578,-0.25,-0.2499,-0.2498,-0.2497,0,0,-0.317,-0.3035,-0.303,-0.2982,-0.2893,-0.2854,-0.2815,-0.2762,-0.275,-0.2702,-0.2684,-0.2647,-0.264,-0.2612,-0.2593,-0.2599,-0.2647,-0.2583,-0.2582,-0.2618,-0.2676,-0.268,-0.2685,-0.2628,-0.2628,-0.2629,-0.2698,0,-0.3161,-0.3067,-0.3004,-0.2931,-0.2872,-0.2823,-0.2793,-0.275,-0.2721,-0.2693,-0.268,-0.2653,-0.2643,-0.2635,-0.2642,-0.2632,-0.2658,-0.2632,-0.2632,-0.2633,-0.2636,-0.269,-0.2599,-0.2652,-0.2703,-0.2703,-0.2704,0,-0.3138,-0.3072,-0.2997,-0.2899,-0.2877,-0.2843,-0.2793,-0.2759,-0.2724,-0.2706,-0.2687,-0.2666,-0.2665,-0.2659,-0.2675,-0.2657,-0.2677,-0.2683,-0.2685,-0.2659,-0.2644,-0.262,-0.2658,-0.2508,-0.2711,-0.2711,-0.271,0,-0.3176,-0.3067,-0.301,-0.2973,-0.2867,-0.2848,-0.2812,-0.2769,-0.275,-0.2719,-0.2706,-0.2692,-0.2684,-0.2698,-0.2706,-0.2692,-0.2734,-0.2714,-0.2745,-0.2747,-0.2653,-0.2645,-0.2545,-0.2749,-0.2749,-0.2748,-0.2748,0,-0.3166,-0.312,-0.3026,-0.2988,-0.2949,-0.2874,-0.2851,-0.2814,-0.2779,-0.2759,-0.2723,-0.271,-0.2693,-0.2702,-0.272,-0.275,-0.2748,-0.2763,-0.2763,-0.2679,-0.2673,-0.2523,-0.2467,-0.2751,-0.2751,-0.275,-0.275,0,-0.3196,-0.3131,-0.3061,-0.2972,-0.2951,-0.2929,-0.2869,-0.2853,-0.2816,-0.279,-0.278,-0.2732,-0.2737,-0.2739,-0.2761,-0.2767,-0.2726,-0.2814,-0.273,-0.272,-0.2603,-0.2557,-0.2548,-0.2475,-0.286,-0.286,-0.286,0,-0.3192,-0.3152,-0.3073,-0.305,-0.301,-0.297,-0.2944,-0.2884,-0.286,-0.2804,-0.2792,-0.2777,-0.2773,-0.2805,-0.2807,-0.2849,-0.2741,-0.2778,-0.2736,-0.2593,-0.2542,-0.2546,-0.2484,-0.2654,-0.2653,-0.2652,-0.2651,0,-0.3171,-0.3157,-0.3106,-0.3067,-0.3033,-0.3005,-0.2959,-0.2938,-0.287,-0.2851,-0.2815,-0.2812,-0.2822,-0.2822,-0.2857,-0.2827,-0.2643,-0.2759,-0.2611,-0.2379,-0.2375,-0.2305,-0.2632,-0.2641,-0.2642,-0.2643,-0.2644,-0.2644,-0.3151,-0.3133,-0.3071,-0.3028,-0.3029,-0.3006,-0.2935,-0.2917,-0.2874,-0.2791,-0.2843,-0.2808,-0.2812,-0.2846,-0.2786,-0.2565,-0.2638,-0.2461,-0.2426,-0.2452,-0.2343,-0.2673,-0.2679,-0.268,-0.2681,-0.2682,-0.2683,0,-0.303,-0.3017,-0.3017,-0.2955,-0.2949,-0.2956,-0.2901,-0.2792,-0.2712,-0.2752,-0.2741,-0.2759,-0.2722,-0.262,-0.2456,-0.2267,-0.2192,-0.211,-0.2031,-0.1991,-0.2261,-0.2204,-0.2105,-0.2105,-0.2105,-0.2105,-0.2106,-0.2106,-0.2952,-0.2883,-0.2884,-0.2828,-0.2827,-0.2716,-0.2648,-0.255,-0.2508,-0.2423,-0.2443,-0.2516,-0.242,-0.2332,-0.2,-0.1866,-0.1703,-0.1706,-0.1674,-0.1764,-0.1791,-0.1817,-0.1746,-0.1553,-0.1553,-0.1365,-0.1362,-0.1361]},{"header":{"parameterUnit":"m.s-1","parameterCategory":2,"la1":30.2991,"la2":30.254,"lo1":-89.0895,"lo2":-89.0444,"dy":0.0017,"dx":0.0017,"nx":28,"ny":28,"refTime":"2024-07-10T21:00:00:Z","depth":"0","parameterNumber":3,"parameterNumberName":"V-component_of_CURRENTS"},"data":[0,0,0,0,0,0,0,0,0,0,0,0,0,0,0,0,0,0,0,0,0,0,0,0,0,0,0,0,0,0,0,0,0,0,0,0,0,0,0,0,0,0,0,0,0,0,0,0,0,0,0,0,0,0,0,0,0,0,-0.1001,-0.1001,0,-0.1002,-0.1001,-0.1001,-0.0998,-0.0999,-0.0999,-0.0999,-0.0971,-0.097,-0.0969,0,0,0,0,0,0,0,0,0,0,0,0,0,-0.0974,-0.0974,-0.1001,-0.1001,-0.1002,-0.1002,-0.1001,-0.1001,-0.0998,-0.0999,-0.0999,-0.1,-0.0972,-0.097,-0.0969,0,0,0,0,0,0,0,0,0,0,0,0,0,-0.0977,-0.0974,-0.1001,-0.1004,-0.1004,-0.1002,-0.1001,-0.1001,-0.0998,-0.0999,-0.0999,-0.1,-0.0972,-0.097,-0.0969,-0.0949,0,0,-0.0964,-0.0963,0,0,0,0,0,0,0,0,-0.0977,-0.0978,-0.1003,-0.1003,-0.1004,-0.1005,-0.0982,-0.0984,-0.0998,-0.0996,-0.0999,-0.1,-0.0982,-0.098,-0.0973,-0.0948,-0.0946,-0.0964,-0.0963,-0.0962,-0.0962,0,0,0,0,0,0,0,-0.0977,-0.0977,-0.0996,-0.1003,-0.1004,-0.0998,-0.0998,-0.0982,-0.0982,-0.0996,-0.0997,-0.1004,-0.0982,-0.0974,-0.0972,-0.0946,-0.0964,-0.0962,-0.0961,-0.0961,-0.0942,-0.0943,0,0,0,0,0,0,-0.0986,-0.0977,-0.0997,-0.0997,-0.0997,-0.0998,-0.0999,-0.1,-0.0983,-0.0982,-0.1004,-0.1004,-0.0977,-0.0974,-0.0971,-0.0973,-0.0962,-0.0961,-0.096,-0.0942,-0.0943,-0.0943,0,0,0,0,0,0,-0.0986,-0.0988,-0.0997,-0.0991,-0.0992,-0.0999,-0.1,-0.1,-0.0998,-0.099,-0.0988,-0.1004,-0.0977,-0.0973,-0.0974,-0.0971,-0.096,-0.0958,-0.0941,-0.0942,-0.0943,-0.096,0,0,0,0,0,0,-0.0985,-0.0987,-0.0987,-0.0992,-0.0993,-0.0998,-0.1,-0.1,-0.1004,-0.1004,-0.0989,-0.0987,-0.0977,-0.0977,-0.0973,-0.0969,-0.0957,-0.0941,-0.0942,-0.0943,-0.0959,-0.0962,-0.0964,0,0,0,0,0,-0.0984,-0.0985,-0.0986,-0.0989,-0.0993,-0.0998,-0.0998,-0.1001,-0.1004,-0.1001,-0.1003,-0.0987,-0.0979,-0.0976,-0.0971,-0.0967,-0.094,-0.0941,-0.0943,-0.0958,-0.0961,-0.0964,0,0,0,0,0,0,-0.0978,-0.0985,-0.0987,-0.0992,-0.0996,-0.1,-0.1,-0.1002,-0.1,-0.1001,-0.0993,-0.0991,-0.0989,-0.0979,-0.0975,-0.0966,-0.0957,-0.0957,-0.0971,-0.0973,-0.0975,-0.0974,-0.0956,0,0,0,0,0,-0.0976,-0.0977,-0.0985,-0.099,-0.0991,-0.0995,-0.0997,-0.0999,-0.1002,-0.1001,-0.0993,-0.0988,-0.0987,-0.0983,-0.0975,-0.0967,-0.0955,-0.0962,-0.0965,-0.0967,-0.0964,-0.0951,-0.0951,-0.0947,-0.0947,-0.0947,0,0,-0.0979,-0.0982,-0.0985,-0.0988,-0.0991,-0.0995,-0.0996,-0.1,-0.1007,-0.0997,-0.0999,-0.0993,-0.0989,-0.0986,-0.0983,-0.0977,-0.0963,-0.0968,-0.0969,-0.0965,-0.0952,-0.0952,-0.0952,-0.0947,-0.0947,-0.0947,0,0,-0.0984,-0.0985,-0.0985,-0.0987,-0.0992,-0.0996,-0.0999,-0.1001,-0.1004,-0.1007,-0.1006,-0.1002,-0.0995,-0.099,-0.0989,-0.0997,-0.0977,-0.0996,-0.1001,-0.0989,-0.0989,-0.0989,-0.0979,-0.0978,-0.0995,-0.0995,-0.0995,0,-0.0987,-0.0992,-0.0987,-0.0987,-0.0997,-0.0999,-0.1007,-0.1007,-0.1009,-0.1013,-0.1012,-0.1006,-0.0996,-0.0999,-0.1005,-0.1,-0.0994,-0.0991,-0.0991,-0.0991,-0.099,-0.098,-0.0979,-0.0996,-0.0996,-0.0996,-0.0996,0,-0.099,-0.0995,-0.0998,-0.1,-0.1004,-0.1014,-0.1019,-0.1023,-0.1029,-0.1026,-0.1028,-0.1017,-0.1014,-0.101,-0.1011,-0.1004,-0.1002,-0.0996,-0.0982,-0.0991,-0.0981,-0.0979,-0.0997,-0.0997,-0.0997,-0.0996,0,0,-0.0993,-0.1001,-0.1001,-0.1012,-0.1016,-0.1025,-0.1036,-0.1049,-0.1059,-0.1047,-0.1054,-0.1047,-0.1033,-0.1032,-0.1024,-0.101,-0.1001,-0.1004,-0.1003,-0.0991,-0.0978,-0.0958,-0.0954,-0.0998,-0.0997,-0.0997,-0.0974,0,-0.1002,-0.1015,-0.1013,-0.1035,-0.1047,-0.1055,-0.1069,-0.1075,-0.1075,-0.1075,-0.106,-0.1055,-0.1045,-0.1042,-0.1028,-0.1011,-0.0996,-0.1008,-0.0974,-0.0973,-0.0951,-0.0951,-0.0856,-0.0826,-0.0972,-0.0972,-0.0971,0,-0.0997,-0.1016,-0.104,-0.1068,-0.1074,-0.1084,-0.1113,-0.1122,-0.1117,-0.1114,-0.11,-0.108,-0.1063,-0.1049,-0.1018,-0.1028,-0.1005,-0.0985,-0.0984,-0.0956,-0.0949,-0.084,-0.0817,-0.0614,-0.0968,-0.0968,-0.0969,0,-0.1005,-0.103,-0.1059,-0.1067,-0.1096,-0.1113,-0.1129,-0.1134,-0.1145,-0.113,-0.1124,-0.11,-0.1087,-0.1057,-0.1024,-0.1019,-0.0988,-0.0974,-0.0932,-0.093,-0.0837,-0.0828,-0.0608,-0.0943,-0.0943,-0.0943,-0.0943,0,-0.1008,-0.1023,-0.1068,-0.1083,-0.1129,-0.1132,-0.1164,-0.1172,-0.1171,-0.1179,-0.1141,-0.1139,-0.1087,-0.1063,-0.1031,-0.0982,-0.0994,-0.0929,-0.092,-0.0842,-0.0834,-0.0644,-0.0547,-0.0943,-0.0943,-0.0943,-0.0943,0,-0.0983,-0.1017,-0.1058,-0.1112,-0.1131,-0.1161,-0.1196,-0.1216,-0.1202,-0.1209,-0.1202,-0.1166,-0.1137,-0.1089,-0.1039,-0.0988,-0.0821,-0.0925,-0.084,-0.0822,-0.0582,-0.0491,-0.0313,-0.0221,-0.0859,-0.0858,-0.0858,0,-0.0942,-0.0967,-0.1076,-0.1127,-0.1151,-0.1196,-0.1233,-0.1239,-0.1252,-0.1234,-0.124,-0.1201,-0.1191,-0.1107,-0.1003,-0.0928,-0.0788,-0.078,-0.0745,-0.0545,-0.0437,-0.0395,-0.0327,-0.0628,-0.0626,-0.0624,-0.0622,0,-0.0869,-0.0937,-0.0999,-0.1128,-0.1192,-0.1257,-0.1297,-0.131,-0.1313,-0.132,-0.1322,-0.1308,-0.1193,-0.1064,-0.0937,-0.0864,-0.0585,-0.0737,-0.0536,-0.0238,-0.017,-0.0085,-0.0674,-0.0605,-0.0606,-0.0608,-0.0609,-0.0609,-0.0814,-0.0874,-0.0998,-0.1118,-0.1211,-0.1303,-0.1347,-0.1384,-0.1419,-0.1439,-0.1406,-0.1365,-0.1064,-0.0874,-0.078,-0.0406,-0.047,-0.0272,-0.0182,-0.0163,-0.0045,-0.0605,-0.0527,-0.0529,-0.053,-0.0531,-0.0531,0,-0.0754,-0.0863,-0.097,-0.1139,-0.1251,-0.1304,-0.1383,-0.1421,-0.1477,-0.1483,-0.1501,-0.1161,-0.0865,-0.0541,-0.0058,0.0147,0.0198,0.0278,0.041,0.0446,-0.0037,0.0005,0.0211,0.0211,0.021,0.021,0.021,0.021,-0.0734,-0.0853,-0.0947,-0.1134,-0.1249,-0.1379,-0.1432,-0.1492,-0.1494,-0.1435,-0.1281,-0.1174,-0.0556,0.0265,0.0754,0.0777,0.0965,0.0942,0.1002,0.0745,0.0702,0.0661,0.0726,0.1079,0.108,0.1483,0.1487,0.1491]}],[{"header":{"parameterUnit":"m.s-1","parameterCategory":2,"la1":30.2991,"la2":30.254,"lo1":-89.0895,"lo2":-89.0444,"dy":0.0017,"dx":0.0017,"nx":28,"ny":28,"refTime":"2024-07-10T21:00:00:Z","depth":"2","parameterNumber":2,"parameterNumberName":"U-component_of_CURRENTS"},"data":[0,0,0,0,0,0,0,0,0,0,0,0,0,0,0,0,0,0,0,0,0,0,0,0,0,0,0,0,0,0,0,0,0,0,0,0,0,0,0,0,0,0,0,0,0,0,0,0,0,0,0,0,0,0,0,0,0,0,-0.1657,-0.1659,0,-0.1761,-0.1762,-0.1762,-0.1836,-0.1837,-0.1838,-0.1839,-0.1859,-0.1859,-0.1858,0,0,0,0,0,0,0,0,0,0,0,0,0,-0.1491,-0.1493,-0.1657,-0.1659,-0.1661,-0.1761,-0.1762,-0.1762,-0.1835,-0.1837,-0.1838,-0.1839,-0.186,-0.1859,-0.1858,0,0,0,0,0,0,0,0,0,0,0,0,0,-0.1569,-0.1494,-0.1657,-0.1714,-0.172,-0.1761,-0.1762,-0.1763,-0.1835,-0.1837,-0.1839,-0.184,-0.186,-0.1859,-0.1858,-0.1819,0,0,-0.1856,-0.1856,0,0,0,0,0,0,0,0,-0.1565,-0.1575,-0.1703,-0.171,-0.1717,-0.1792,-0.1711,-0.1779,-0.1835,-0.1785,-0.1839,-0.1841,-0.1832,-0.1834,-0.1842,-0.182,-0.1821,-0.1856,-0.1855,-0.1855,-0.1855,0,0,0,0,0,0,0,-0.1559,-0.1571,-0.1692,-0.1705,-0.1714,-0.1724,-0.1737,-0.1724,-0.1791,-0.1789,-0.1797,-0.1817,-0.1835,-0.1842,-0.1843,-0.1821,-0.1856,-0.1855,-0.1855,-0.1854,-0.1815,-0.1814,0,0,0,0,0,0,-0.1559,-0.1566,-0.1689,-0.1696,-0.1651,-0.1726,-0.174,-0.1762,-0.1793,-0.1802,-0.1816,-0.1821,-0.1843,-0.1843,-0.1844,-0.1853,-0.1855,-0.1854,-0.1854,-0.1816,-0.1815,-0.1814,0,0,0,0,0,0,-0.1555,-0.1569,-0.1685,-0.1638,-0.1654,-0.1728,-0.1751,-0.1763,-0.1778,-0.1816,-0.1822,-0.182,-0.1844,-0.1845,-0.1839,-0.1852,-0.1854,-0.1853,-0.1816,-0.1815,-0.1815,-0.1837,0,0,0,0,0,0,-0.155,-0.1567,-0.1575,-0.1638,-0.1657,-0.1707,-0.175,-0.1764,-0.1791,-0.1798,-0.1821,-0.1825,-0.1846,-0.184,-0.1838,-0.1851,-0.1853,-0.1817,-0.1816,-0.1815,-0.1837,-0.1837,-0.1837,0,0,0,0,0,-0.1543,-0.1547,-0.1575,-0.159,-0.1668,-0.1707,-0.1716,-0.177,-0.1789,-0.1789,-0.1809,-0.1824,-0.1832,-0.1838,-0.1836,-0.185,-0.1817,-0.1816,-0.1815,-0.1837,-0.1837,-0.1837,0,0,0,0,0,0,-0.1488,-0.1557,-0.1589,-0.1617,-0.166,-0.1722,-0.1733,-0.176,-0.1776,-0.178,-0.1809,-0.1813,-0.181,-0.1815,-0.1821,-0.1833,-0.1829,-0.1828,-0.1847,-0.1847,-0.1847,-0.1865,-0.1852,0,0,0,0,0,-0.1478,-0.1503,-0.1565,-0.1593,-0.1608,-0.1664,-0.1685,-0.1718,-0.1748,-0.1758,-0.1776,-0.1791,-0.1799,-0.1812,-0.1807,-0.181,-0.1824,-0.1817,-0.1817,-0.1818,-0.1829,-0.1836,-0.1839,-0.181,-0.181,-0.181,0,0,-0.1476,-0.1513,-0.1533,-0.1583,-0.1621,-0.1648,-0.168,-0.1707,-0.1735,-0.1752,-0.1774,-0.1776,-0.1792,-0.1803,-0.1804,-0.1816,-0.1836,-0.1816,-0.1816,-0.1828,-0.1836,-0.1839,-0.1842,-0.1809,-0.1809,-0.1809,0,0,-0.1482,-0.1503,-0.1527,-0.1549,-0.1598,-0.1628,-0.1632,-0.168,-0.1701,-0.1717,-0.174,-0.1752,-0.1761,-0.1793,-0.1807,-0.1797,-0.182,-0.1792,-0.1829,-0.1836,-0.1839,-0.1842,-0.1884,-0.189,-0.1812,-0.1812,-0.1812,0,-0.1485,-0.1522,-0.1539,-0.1559,-0.1588,-0.1617,-0.1646,-0.1663,-0.1704,-0.1725,-0.1724,-0.176,-0.1764,-0.1809,-0.1816,-0.1801,-0.1817,-0.1834,-0.1839,-0.1842,-0.1844,-0.1886,-0.1893,-0.1813,-0.1813,-0.1812,-0.1812,0,-0.1515,-0.1536,-0.1545,-0.159,-0.1605,-0.163,-0.166,-0.167,-0.1693,-0.1726,-0.1752,-0.1763,-0.1795,-0.1799,-0.181,-0.184,-0.1849,-0.1824,-0.1846,-0.1849,-0.1892,-0.1899,-0.1814,-0.1814,-0.1813,-0.1813,0,0,-0.158,-0.1572,-0.1587,-0.1594,-0.1623,-0.1642,-0.1664,-0.171,-0.1737,-0.1758,-0.1799,-0.1823,-0.183,-0.1845,-0.1857,-0.188,-0.1915,-0.187,-0.187,-0.1925,-0.196,-0.1971,-0.1979,-0.189,-0.1891,-0.1892,-0.1991,0,-0.1623,-0.1648,-0.164,-0.167,-0.1684,-0.169,-0.1714,-0.1744,-0.1766,-0.1793,-0.182,-0.1843,-0.1848,-0.1861,-0.1884,-0.1889,-0.193,-0.1893,-0.1937,-0.1939,-0.1958,-0.1986,-0.1718,-0.1784,-0.1998,-0.1999,-0.2,0,-0.1699,-0.1686,-0.1714,-0.1705,-0.1714,-0.1728,-0.1767,-0.1785,-0.1818,-0.1836,-0.1867,-0.1872,-0.1913,-0.1896,-0.1953,-0.1928,-0.1952,-0.1968,-0.1971,-0.1979,-0.1961,-0.1809,-0.1788,-0.2011,-0.201,-0.2009,-0.2009,0,-0.1761,-0.1764,-0.178,-0.1779,-0.1761,-0.1773,-0.1776,-0.1807,-0.1821,-0.1853,-0.187,-0.191,-0.1925,-0.1952,-0.1993,-0.1965,-0.2057,-0.2013,-0.2064,-0.2067,-0.1848,-0.183,-0.2064,-0.2064,-0.2064,-0.2064,-0.2063,0,-0.1832,-0.1853,-0.1801,-0.1795,-0.1811,-0.1794,-0.1815,-0.1832,-0.1846,-0.1882,-0.1885,-0.1927,-0.1934,-0.1985,-0.2012,-0.2077,-0.2076,-0.2089,-0.2092,-0.1851,-0.1833,-0.2025,-0.2019,-0.2067,-0.2067,-0.2066,-0.2065,0,-0.1917,-0.1897,-0.189,-0.1841,-0.1833,-0.1842,-0.1818,-0.185,-0.1848,-0.1891,-0.19,-0.1937,-0.201,-0.205,-0.2107,-0.2107,-0.216,-0.2191,-0.1935,-0.1907,-0.2161,-0.2155,-0.2236,-0.2237,-0.2238,-0.2239,-0.2239,0,-0.1981,-0.1964,-0.1905,-0.1912,-0.189,-0.1879,-0.1898,-0.1869,-0.1895,-0.1921,-0.1964,-0.2017,-0.2094,-0.2182,-0.2166,-0.2223,-0.2249,-0.2006,-0.1901,-0.2184,-0.2179,-0.2171,-0.2164,-0.1622,-0.1618,-0.1614,-0.1611,0,-0.2021,-0.1986,-0.1959,-0.1951,-0.1961,-0.1956,-0.196,-0.1954,-0.1952,-0.197,-0.2042,-0.2089,-0.2169,-0.2097,-0.2134,-0.2096,-0.1963,-0.194,-0.2272,-0.1639,-0.1618,-0.161,-0.1619,-0.1579,-0.1582,-0.1585,-0.1587,-0.1588,-0.1994,-0.203,-0.1968,-0.1955,-0.2012,-0.2013,-0.1942,-0.1942,-0.1918,-0.1892,-0.206,-0.2042,-0.2029,-0.1974,-0.1888,-0.1746,-0.1927,-0.1747,-0.1752,-0.1762,-0.1692,-0.1675,-0.1636,-0.1639,-0.1642,-0.1645,-0.1647,0,-0.1829,-0.1914,-0.1971,-0.1931,-0.196,-0.1997,-0.1973,-0.1847,-0.1746,-0.1852,-0.1891,-0.1715,-0.1665,-0.1629,-0.1416,-0.1404,-0.128,-0.1253,-0.1082,-0.1116,-0.1146,-0.1038,-0.0812,-0.081,-0.0808,-0.0806,0,0,-0.1719,-0.1701,-0.1761,-0.1779,-0.1854,-0.1777,-0.1725,-0.1548,-0.1512,-0.1487,-0.1477,-0.1691,-0.1679,-0.1323,-0.1199,-0.1003,-0.1036,-0.0886,-0.1554,-0.1394,-0.1423,-0.1428,-0.1302,0,0,0,0,0]},{"header":{"parameterUnit":"m.s-1","parameterCategory":2,"la1":30.2991,"la2":30.254,"lo1":-89.0895,"lo2":-89.0444,"dy":0.0017,"dx":0.0017,"nx":28,"ny":28,"refTime":"2024-07-10T21:00:00:Z","depth":"2","parameterNumber":3,"parameterNumberName":"V-component_of_CURRENTS"},"data":[0,0,0,0,0,0,0,0,0,0,0,0,0,0,0,0,0,0,0,0,0,0,0,0,0,0,0,0,0,0,0,0,0,0,0,0,0,0,0,0,0,0,0,0,0,0,0,0,0,0,0,0,0,0,0,0,0,0,0.0563,0.0563,0,0.0583,0.0584,0.0585,0.0601,0.0601,0.0601,0.06,0.0663,0.0665,0.0667,0,0,0,0,0,0,0,0,0,0,0,0,0,0.0566,0.0566,0.0563,0.0563,0.0563,0.0583,0.0584,0.0585,0.0601,0.0601,0.0601,0.06,0.0663,0.0665,0.0667,0,0,0,0,0,0,0,0,0,0,0,0,0,0.0578,0.0566,0.0563,0.057,0.057,0.0583,0.0584,0.0585,0.0601,0.0601,0.06,0.06,0.0662,0.0665,0.0668,0.0694,0,0,0.0676,0.0678,0,0,0,0,0,0,0,0,0.0578,0.0579,0.0569,0.0569,0.0569,0.0585,0.0608,0.0622,0.0601,0.0595,0.06,0.06,0.0638,0.0643,0.0654,0.0697,0.07,0.0677,0.0678,0.068,0.0681,0,0,0,0,0,0,0,0.0577,0.0578,0.0576,0.0568,0.0569,0.0581,0.0582,0.0611,0.0623,0.0595,0.0595,0.059,0.0639,0.0651,0.0656,0.0701,0.0677,0.0679,0.0681,0.0682,0.0757,0.0758,0,0,0,0,0,0,0.0563,0.0577,0.0576,0.0576,0.0567,0.058,0.0582,0.0585,0.0622,0.0626,0.059,0.059,0.0647,0.0652,0.0658,0.0632,0.068,0.0682,0.0684,0.0757,0.0757,0.0758,0,0,0,0,0,0,0.0563,0.0563,0.0575,0.0573,0.0574,0.058,0.0583,0.0585,0.0575,0.0617,0.0622,0.0574,0.0647,0.0654,0.067,0.0637,0.0684,0.0686,0.0757,0.0757,0.0758,0.0619,0,0,0,0,0,0,0.0563,0.0563,0.056,0.0572,0.0574,0.0563,0.0583,0.0586,0.0571,0.0572,0.0606,0.0612,0.0647,0.0665,0.0673,0.0642,0.0689,0.0757,0.0757,0.0757,0.0623,0.0614,0.0607,0,0,0,0,0,0.0564,0.0544,0.056,0.0559,0.0569,0.0561,0.0563,0.057,0.057,0.0561,0.0588,0.061,0.0674,0.0667,0.0676,0.0645,0.0756,0.0757,0.0757,0.0627,0.0616,0.0607,0,0,0,0,0,0,0.0528,0.0544,0.0561,0.0545,0.0549,0.0562,0.0545,0.0554,0.0568,0.056,0.0608,0.0617,0.0619,0.0663,0.0655,0.0676,0.0721,0.0723,0.0619,0.0609,0.0601,0.0591,0.0691,0,0,0,0,0,0.0524,0.0521,0.0536,0.052,0.0518,0.0531,0.0527,0.0528,0.054,0.0544,0.0568,0.0603,0.0634,0.0643,0.0678,0.0684,0.0709,0.0678,0.0669,0.0662,0.0664,0.071,0.0705,0.076,0.076,0.076,0,0,0.0502,0.0511,0.0507,0.0514,0.0516,0.0506,0.0528,0.0501,0.0499,0.055,0.0545,0.057,0.0632,0.0637,0.0642,0.0663,0.0644,0.0662,0.0655,0.0661,0.071,0.0704,0.0699,0.076,0.076,0.076,0,0,0.0456,0.0466,0.0453,0.0456,0.0451,0.0461,0.0447,0.0449,0.0454,0.0453,0.0493,0.0512,0.0542,0.0588,0.0616,0.0595,0.06,0.0585,0.0528,0.0571,0.0566,0.0562,0.0506,0.0499,0.0579,0.0579,0.0579,0,0.0434,0.0425,0.0442,0.0431,0.0429,0.0436,0.0418,0.0426,0.0432,0.0441,0.0434,0.0493,0.0533,0.0569,0.0544,0.0576,0.0555,0.0547,0.0556,0.0554,0.0552,0.0497,0.049,0.0572,0.0573,0.0574,0.0574,0,0.0381,0.038,0.0361,0.0366,0.0365,0.0339,0.0357,0.0348,0.0346,0.0362,0.0376,0.0425,0.0464,0.0469,0.0486,0.0493,0.0459,0.0534,0.0567,0.0538,0.0481,0.0476,0.0563,0.0565,0.0567,0.0569,0,0,0.0329,0.033,0.0326,0.0325,0.0329,0.0316,0.0312,0.0322,0.0312,0.0319,0.0316,0.0362,0.0368,0.0403,0.0431,0.0452,0.0388,0.0452,0.0458,0.0369,0.0378,0.0374,0.0369,0.0439,0.044,0.0441,0.0311,0,0.0289,0.0254,0.0277,0.0248,0.0229,0.0256,0.0255,0.0264,0.0269,0.0262,0.0315,0.0317,0.0351,0.0334,0.0363,0.0389,0.0382,0.0411,0.0445,0.0445,0.0427,0.0369,0.0453,0.0349,0.0307,0.0306,0.0306,0,0.0231,0.0225,0.0185,0.0195,0.0191,0.0177,0.0175,0.0176,0.0192,0.0194,0.0211,0.0234,0.0246,0.0287,0.0316,0.0311,0.0323,0.0348,0.0346,0.0399,0.0438,0.0394,0.0343,0.03,0.03,0.0301,0.0301,0,0.0169,0.0161,0.0126,0.0125,0.0133,0.0127,0.0128,0.0144,0.0135,0.0134,0.0105,0.0153,0.0133,0.0194,0.0215,0.0247,0.0225,0.031,0.0317,0.0312,0.0428,0.0435,0.0345,0.0345,0.0345,0.0346,0.0346,0,0.0113,0.0083,0.0086,0.0071,0.0029,0.006,0.0021,0.0034,0.0033,0.0,0.005,0.0018,0.0105,0.0103,0.0161,0.0186,0.0192,0.028,0.0296,0.0373,0.0377,0.0405,0.0414,0.0341,0.0342,0.0343,0.0344,0,0.0024,0.0029,-0.0007,0.0002,-0.0008,-0.0047,-0.006,-0.0089,-0.0078,-0.0127,-0.0143,-0.0124,-0.0134,-0.0061,-0.0001,0.0095,0.015,0.0165,0.0187,0.021,0.0207,0.021,0.0163,0.0162,0.0161,0.0161,0.016,0,-0.0032,-0.0061,-0.0076,-0.0115,-0.0122,-0.0166,-0.02,-0.0168,-0.0194,-0.0215,-0.0252,-0.0279,-0.0291,-0.023,-0.0061,0.003,0.0048,0.0157,0.0298,0.0176,0.0196,0.02,0.0204,0.0348,0.0349,0.035,0.035,0,-0.0122,-0.0131,-0.0161,-0.0241,-0.0287,-0.0326,-0.036,-0.0384,-0.0362,-0.0395,-0.0449,-0.0458,-0.0367,-0.0214,-0.0074,0.0021,0.0161,0.0178,0.0067,0.0393,0.0346,0.0366,0.0366,0.0358,0.0357,0.0357,0.0357,0.0356,-0.0178,-0.025,-0.0295,-0.0384,-0.0448,-0.05,-0.0539,-0.0543,-0.0586,-0.0635,-0.0601,-0.0579,-0.0363,-0.014,0.0003,0.0171,0.018,0.0287,0.0287,0.0286,0.0343,0.03,0.0306,0.0305,0.0304,0.0304,0.0303,0,-0.0218,-0.0332,-0.0436,-0.0529,-0.063,-0.0624,-0.0668,-0.0689,-0.0742,-0.0748,-0.0777,-0.0548,-0.031,-0.0121,0.0191,0.0359,0.0398,0.0366,0.0427,0.0421,0.0415,0.0481,0.0479,0.0479,0.0478,0.0478,0,0,-0.0236,-0.0362,-0.0451,-0.0666,-0.0765,-0.0861,-0.089,-0.088,-0.0862,-0.0912,-0.0847,-0.0709,-0.0343,-0.0104,0.0145,0.0307,0.0294,0.0317,0.0179,0.0218,0.0208,0.0395,0.0494,0,0,0,0,0]}],[{"header":{"parameterUnit":"m.s-1","parameterCategory":2,"la1":30.2991,"la2":30.254,"lo1":-89.0895,"lo2":-89.0444,"dy":0.0017,"dx":0.0017,"nx":28,"ny":28,"refTime":"2024-07-10T21:00:00:Z","depth":"4","parameterNumber":2,"parameterNumberName":"U-component_of_CURRENTS"},"data":[0,0,0,0,0,0,0,0,0,0,0,0,0,0,0,0,0,0,0,0,0,0,0,0,0,0,0,0,0,0,0,0,0,0,0,0,0,0,0,0,0,0,0,0,0,0,0,0,0,0,0,0,0,0,0,0,0,0,-0.0825,-0.0827,0,-0.0937,-0.0938,-0.0938,-0.0977,-0.0977,-0.0977,-0.0977,-0.1042,-0.1044,-0.1045,0,0,0,0,0,0,0,0,0,0,0,0,0,-0.069,-0.0692,-0.0825,-0.0827,-0.0829,-0.0937,-0.0938,-0.0939,-0.0977,-0.0977,-0.0977,-0.0977,-0.1042,-0.1044,-0.1046,0,0,0,0,0,0,0,0,0,0,0,0,0,-0.0764,-0.0692,-0.0825,-0.0866,-0.0871,-0.0937,-0.0938,-0.0939,-0.0977,-0.0977,-0.0977,-0.0977,-0.1041,-0.1043,-0.1046,-0.1056,0,0,-0.1053,-0.1054,0,0,0,0,0,0,0,0,-0.076,-0.0768,-0.0858,-0.0863,-0.0869,-0.0949,-0.0915,-0.0978,-0.0977,-0.093,-0.0977,-0.0978,-0.1011,-0.1016,-0.1028,-0.1059,-0.1062,-0.1053,-0.1055,-0.1056,-0.1056,0,0,0,0,0,0,0,-0.0754,-0.0764,-0.0863,-0.086,-0.0867,-0.0895,-0.0904,-0.0927,-0.0962,-0.0934,-0.0939,-0.0961,-0.1013,-0.1025,-0.1029,-0.1063,-0.1053,-0.1055,-0.1057,-0.1058,-0.1179,-0.1181,0,0,0,0,0,0,-0.0751,-0.0759,-0.0859,-0.0867,-0.0821,-0.0897,-0.0908,-0.0918,-0.0963,-0.0972,-0.0961,-0.0963,-0.1021,-0.1027,-0.1032,-0.1086,-0.1056,-0.1058,-0.1059,-0.1177,-0.1179,-0.1181,0,0,0,0,0,0,-0.0748,-0.0758,-0.0855,-0.0821,-0.0836,-0.09,-0.0911,-0.092,-0.0949,-0.0985,-0.0992,-0.0983,-0.1021,-0.1028,-0.1076,-0.1088,-0.1059,-0.1061,-0.1175,-0.1178,-0.118,-0.117,0,0,0,0,0,0,-0.0743,-0.0756,-0.0749,-0.082,-0.0838,-0.0901,-0.0911,-0.0922,-0.0965,-0.0968,-0.1006,-0.1011,-0.1022,-0.1072,-0.1078,-0.109,-0.1063,-0.1173,-0.1176,-0.1179,-0.1168,-0.1172,-0.1175,0,0,0,0,0,-0.0737,-0.0736,-0.0748,-0.076,-0.083,-0.0902,-0.0913,-0.0955,-0.0966,-0.098,-0.1015,-0.1011,-0.1098,-0.1076,-0.1082,-0.1095,-0.1171,-0.1175,-0.1179,-0.1166,-0.1171,-0.1175,0,0,0,0,0,0,-0.0666,-0.0743,-0.0757,-0.0775,-0.0836,-0.0911,-0.0922,-0.0962,-0.1001,-0.1003,-0.1031,-0.104,-0.1082,-0.1101,-0.1076,-0.1145,-0.1135,-0.114,-0.1123,-0.1127,-0.1131,-0.1115,-0.1065,0,0,0,0,0,-0.0649,-0.0669,-0.075,-0.0762,-0.0789,-0.0856,-0.0887,-0.0929,-0.0982,-0.0999,-0.1036,-0.1073,-0.1102,-0.1124,-0.1152,-0.1191,-0.1191,-0.1208,-0.1211,-0.1214,-0.1209,-0.1215,-0.1218,-0.1194,-0.1194,-0.1194,0,0,-0.062,-0.0669,-0.0675,-0.0749,-0.0789,-0.0845,-0.0873,-0.0929,-0.0972,-0.0999,-0.1054,-0.1083,-0.1116,-0.1157,-0.1178,-0.1175,-0.1227,-0.1219,-0.122,-0.1215,-0.122,-0.1221,-0.1223,-0.1197,-0.1197,-0.1196,0,0,-0.0589,-0.0619,-0.0629,-0.0695,-0.0777,-0.083,-0.0852,-0.0943,-0.097,-0.1034,-0.1061,-0.1101,-0.1159,-0.1184,-0.1201,-0.1245,-0.124,-0.1264,-0.1271,-0.1277,-0.1278,-0.1279,-0.1295,-0.1297,-0.127,-0.127,-0.127,0,-0.0545,-0.0583,-0.0643,-0.0693,-0.0753,-0.0827,-0.0879,-0.0919,-0.1017,-0.1041,-0.105,-0.1141,-0.1165,-0.1211,-0.123,-0.1248,-0.1257,-0.1244,-0.1278,-0.1278,-0.1279,-0.1295,-0.1297,-0.127,-0.127,-0.127,-0.127,0,-0.0542,-0.0583,-0.0601,-0.0688,-0.0761,-0.0815,-0.0909,-0.096,-0.1006,-0.1051,-0.1108,-0.1147,-0.12,-0.1219,-0.1235,-0.1269,-0.1276,-0.1271,-0.1254,-0.128,-0.1297,-0.1299,-0.127,-0.127,-0.127,-0.127,0,0,-0.0416,-0.0561,-0.0571,-0.0622,-0.0772,-0.0827,-0.0907,-0.099,-0.103,-0.1092,-0.1133,-0.1186,-0.1207,-0.123,-0.1261,-0.1273,-0.1289,-0.128,-0.128,-0.1274,-0.1314,-0.1188,-0.1178,-0.1288,-0.1288,-0.1288,-0.1326,0,-0.0388,-0.0467,-0.057,-0.0661,-0.0713,-0.0842,-0.0922,-0.1014,-0.1069,-0.1122,-0.115,-0.1197,-0.121,-0.124,-0.1252,-0.1294,-0.1295,-0.128,-0.1309,-0.131,-0.1175,-0.1176,-0.1289,-0.1328,-0.1328,-0.1329,-0.1329,0,-0.0351,-0.0419,-0.049,-0.0663,-0.07,-0.0781,-0.0923,-0.0998,-0.1091,-0.1136,-0.118,-0.1208,-0.126,-0.1245,-0.1304,-0.1299,-0.1297,-0.1312,-0.1313,-0.1195,-0.1186,-0.1298,-0.1334,-0.1333,-0.1333,-0.1333,-0.1332,0,-0.0227,-0.0371,-0.042,-0.048,-0.0673,-0.0742,-0.0853,-0.099,-0.1048,-0.1132,-0.1175,-0.1233,-0.1256,-0.1285,-0.1316,-0.1319,-0.1352,-0.1358,-0.1238,-0.1231,-0.1338,-0.1337,-0.1351,-0.1351,-0.1351,-0.1351,-0.1351,0,-0.0173,-0.0212,-0.0364,-0.0397,-0.0477,-0.0667,-0.0763,-0.0867,-0.1011,-0.1068,-0.1159,-0.1195,-0.1261,-0.1289,-0.1318,-0.1284,-0.1353,-0.1228,-0.122,-0.1338,-0.1336,-0.1341,-0.1339,-0.1353,-0.1352,-0.1352,-0.1352,0,-0.0044,-0.0131,-0.0174,-0.0352,-0.0412,-0.0466,-0.0706,-0.0766,-0.0937,-0.1011,-0.104,-0.1157,-0.1191,-0.1242,-0.128,-0.126,-0.1265,-0.1221,-0.1351,-0.1353,-0.1147,-0.1145,-0.1109,-0.1104,-0.11,-0.1097,-0.1095,0,0.0001,-0.0003,-0.0094,-0.0113,-0.0195,-0.0329,-0.0424,-0.0664,-0.0738,-0.0978,-0.0976,-0.1057,-0.1111,-0.1113,-0.1147,-0.117,-0.1142,-0.116,-0.1137,-0.1119,-0.1117,-0.1121,-0.1124,-0.1089,-0.1088,-0.1087,-0.1086,0,0.0077,0.0087,0.0053,0.0032,-0.0037,-0.0129,-0.0294,-0.0363,-0.0634,-0.0769,-0.093,-0.0999,-0.1002,-0.1035,-0.103,-0.105,-0.1175,-0.1121,-0.1129,-0.1107,-0.1095,-0.1097,-0.1105,-0.1073,-0.1075,-0.1076,-0.1077,0,0.0147,0.0171,0.0152,0.0128,0.0105,0.0042,-0.0079,-0.0263,-0.0407,-0.0722,-0.0746,-0.0891,-0.0989,-0.0965,-0.0981,-0.0968,-0.095,-0.0963,-0.0979,-0.0994,-0.0928,-0.0894,-0.0791,0,0,0,0,0,0.0164,0.0183,0.0204,0.018,0.0194,0.0137,-0.0005,-0.0147,-0.0405,-0.0492,-0.0664,-0.0701,-0.0782,-0.0829,-0.0781,-0.0822,-0.0881,-0.0758,-0.0886,-0.1001,-0.1016,-0.0943,0,0,0,0,0,0,0.0165,0.0199,0.0216,0.0244,0.0236,0.0191,0.0099,-0.0077,-0.0174,-0.0422,-0.0452,-0.0641,-0.0674,-0.0788,-0.0762,-0.0767,-0.0832,-0.0837,-0.0835,-0.0993,-0.1006,-0.1018,-0.0948,0,0,0,0,0]},{"header":{"parameterUnit":"m.s-1","parameterCategory":2,"la1":30.2991,"la2":30.254,"lo1":-89.0895,"lo2":-89.0444,"dy":0.0017,"dx":0.0017,"nx":28,"ny":28,"refTime":"2024-07-10T21:00:00:Z","depth":"4","parameterNumber":3,"parameterNumberName":"V-component_of_CURRENTS"},"data":[0,0,0,0,0,0,0,0,0,0,0,0,0,0,0,0,0,0,0,0,0,0,0,0,0,0,0,0,0,0,0,0,0,0,0,0,0,0,0,0,0,0,0,0,0,0,0,0,0,0,0,0,0,0,0,0,0,0,-0.0115,-0.0116,0,-0.0116,-0.0116,-0.0116,-0.0078,-0.0077,-0.0077,-0.0076,-0.0038,-0.0038,-0.0038,0,0,0,0,0,0,0,0,0,0,0,0,0,-0.0005,-0.0007,-0.0115,-0.0116,-0.0116,-0.0116,-0.0116,-0.0116,-0.0078,-0.0077,-0.0076,-0.0076,-0.0038,-0.0038,-0.0038,0,0,0,0,0,0,0,0,0,0,0,0,0,-0.0031,-0.0008,-0.0115,-0.0099,-0.0098,-0.0116,-0.0116,-0.0116,-0.0078,-0.0077,-0.0076,-0.0075,-0.0038,-0.0038,-0.0037,-0.0056,0,0,-0.0036,-0.0036,0,0,0,0,0,0,0,0,-0.003,-0.0035,-0.0101,-0.0101,-0.0099,-0.0099,-0.0063,-0.0095,-0.0079,-0.0083,-0.0076,-0.0075,-0.0058,-0.0056,-0.0054,-0.0054,-0.0053,-0.0036,-0.0036,-0.0035,-0.0035,0,0,0,0,0,0,0,-0.0028,-0.0035,-0.0112,-0.0102,-0.0101,-0.0067,-0.0069,-0.0069,-0.0073,-0.0082,-0.008,-0.0086,-0.0056,-0.0055,-0.0053,-0.0052,-0.0036,-0.0035,-0.0035,-0.0035,-0.0036,-0.0037,0,0,0,0,0,0,-0.004,-0.0034,-0.0113,-0.0113,-0.0065,-0.007,-0.0073,-0.0097,-0.0074,-0.0071,-0.0087,-0.0084,-0.0056,-0.0054,-0.0052,-0.0045,-0.0035,-0.0035,-0.0035,-0.0036,-0.0036,-0.0037,0,0,0,0,0,0,-0.0038,-0.0048,-0.0113,-0.0074,-0.008,-0.0074,-0.0101,-0.0098,-0.009,-0.0078,-0.0073,-0.0081,-0.0055,-0.0052,-0.0042,-0.0044,-0.0035,-0.0034,-0.0036,-0.0036,-0.0036,-0.005,0,0,0,0,0,0,-0.0035,-0.0048,-0.0064,-0.0076,-0.0083,-0.0128,-0.0102,-0.0099,-0.0097,-0.0093,-0.0072,-0.0068,-0.0054,-0.0043,-0.0042,-0.0043,-0.0034,-0.0035,-0.0036,-0.0036,-0.0049,-0.005,-0.0052,0,0,0,0,0,-0.0032,-0.0058,-0.0066,-0.0075,-0.0109,-0.0129,-0.0129,-0.0117,-0.0098,-0.0103,-0.0079,-0.0068,-0.0046,-0.0043,-0.0042,-0.0043,-0.0035,-0.0036,-0.0036,-0.0048,-0.005,-0.0052,0,0,0,0,0,0,-0.0008,-0.0058,-0.0066,-0.0104,-0.0119,-0.0124,-0.013,-0.0119,-0.0105,-0.0097,-0.0073,-0.0068,-0.0061,-0.0053,-0.005,-0.0046,-0.0039,-0.0039,-0.0049,-0.005,-0.0052,-0.0054,-0.0033,0,0,0,0,0,-0.0017,-0.0057,-0.0086,-0.0115,-0.0128,-0.0128,-0.0132,-0.0127,-0.0121,-0.0113,-0.0098,-0.008,-0.0066,-0.0058,-0.0052,-0.005,-0.001,-0.0051,-0.0052,-0.0054,-0.0055,0.0012,0.0017,-0.0039,-0.0039,-0.0039,0,0,-0.0016,-0.0048,-0.0069,-0.0113,-0.0124,-0.0144,-0.0127,-0.0141,-0.0144,-0.0113,-0.0106,-0.0088,-0.0068,-0.0063,-0.0059,-0.0054,-0.0015,-0.0055,-0.0056,-0.0056,0.0012,0.0018,0.0023,-0.004,-0.004,-0.0039,0,0,-0.0039,-0.0065,-0.0109,-0.0124,-0.0153,-0.0153,-0.0158,-0.0168,-0.0159,-0.0161,-0.013,-0.0109,-0.0103,-0.0077,-0.0065,-0.0073,-0.0028,-0.0076,-0.0083,-0.0017,-0.0012,-0.0006,0.0064,0.0076,-0.0074,-0.0074,-0.0074,0,-0.0032,-0.0096,-0.0118,-0.0155,-0.0164,-0.0158,-0.0184,-0.018,-0.0178,-0.0173,-0.0165,-0.0132,-0.0109,-0.0084,-0.0079,-0.0076,-0.0028,-0.0075,-0.0017,-0.0011,-0.0005,0.0066,0.0079,-0.0075,-0.0075,-0.0075,-0.0075,0,-0.0095,-0.013,-0.0151,-0.0201,-0.0207,-0.0229,-0.023,-0.0228,-0.0216,-0.021,-0.0195,-0.0162,-0.0138,-0.0127,-0.0102,-0.0055,-0.0031,-0.0026,-0.0008,0.0,0.0074,0.0088,-0.0076,-0.0076,-0.0075,-0.0075,0,0,-0.0102,-0.0186,-0.0188,-0.0214,-0.0231,-0.0245,-0.0245,-0.0251,-0.0246,-0.0239,-0.0234,-0.0193,-0.0171,-0.0154,-0.0119,-0.0059,0.0036,-0.0023,-0.0019,0.0054,0.0194,0.0151,0.0163,0.0058,0.006,0.0061,0.0233,0,-0.0139,-0.0225,-0.0244,-0.0281,-0.0312,-0.0298,-0.0296,-0.029,-0.0277,-0.0271,-0.0235,-0.0217,-0.0183,-0.0162,-0.01,-0.0004,0.0071,-0.001,0.0168,0.0173,0.014,0.0176,0.0068,0.0244,0.0247,0.025,0.0252,0,-0.0175,-0.0232,-0.0292,-0.0327,-0.0338,-0.0349,-0.0337,-0.0338,-0.0317,-0.0305,-0.028,-0.0254,-0.0178,-0.0152,0.0026,-0.0025,0.0087,0.0165,0.0174,0.0146,0.0156,0.0231,0.0278,0.0276,0.0274,0.0272,0.027,0,-0.0154,-0.0244,-0.0294,-0.0307,-0.035,-0.0359,-0.0371,-0.035,-0.0347,-0.0323,-0.031,-0.0242,-0.0201,-0.0063,0.009,0.0074,0.0289,0.0286,0.0356,0.0355,0.0349,0.0341,0.0428,0.0428,0.0427,0.0427,0.0426,0,-0.0159,-0.018,-0.03,-0.0313,-0.0355,-0.0378,-0.0393,-0.0379,-0.0379,-0.0368,-0.0327,-0.029,-0.0172,-0.0052,0.0096,0.0267,0.0304,0.0366,0.0397,0.034,0.0329,0.0361,0.0351,0.0433,0.0432,0.0431,0.0429,0,-0.0072,-0.0161,-0.0206,-0.03,-0.0336,-0.0349,-0.0413,-0.0425,-0.0409,-0.0392,-0.0381,-0.0311,-0.0164,-0.0032,0.0187,0.0268,0.0443,0.0502,0.0441,0.0464,0.0467,0.0455,0.0591,0.0591,0.0591,0.059,0.059,0,-0.004,-0.0066,-0.0177,-0.0221,-0.026,-0.0325,-0.0367,-0.0416,-0.0431,-0.0384,-0.037,-0.0266,-0.02,0.0071,0.0209,0.0453,0.0479,0.0572,0.0505,0.0468,0.0485,0.0472,0.046,0.059,0.059,0.059,0.059,0,0.0036,0.0006,-0.0035,-0.0132,-0.0208,-0.0292,-0.0368,-0.0395,-0.043,-0.0422,-0.0345,-0.0237,-0.01,0.0061,0.023,0.0415,0.0505,0.0572,0.0573,0.0511,0.0469,0.0483,0.0471,0.059,0.059,0.059,0.059,0,0.0103,0.0095,0.0016,-0.0058,-0.0143,-0.0243,-0.0302,-0.036,-0.0394,-0.0379,-0.0344,-0.0203,-0.0143,0.0048,0.0232,0.0363,0.0388,0.0437,0.0445,0.0447,0.0327,0.0248,0.034,0,0,0,0,0,0.0125,0.0103,0.0066,-0.004,-0.0101,-0.0182,-0.0294,-0.0358,-0.0424,-0.0372,-0.037,-0.0237,-0.0033,0.0055,0.0181,0.023,0.0416,0.0381,0.0477,0.0589,0.0589,0.0465,0,0,0,0,0,0,0.0121,0.0105,0.008,-0.0005,-0.007,-0.0177,-0.0265,-0.0315,-0.0311,-0.0333,-0.0233,-0.0193,-0.0003,-0.0093,0.0194,0.0231,0.031,0.047,0.0472,0.0589,0.0589,0.0589,0.0462,0,0,0,0,0]}]]